GW3327 Weather Reports


time (UTC)temp
C
wind
direction
speed
KPH
gust
KPH
rain 1hr
cm
rain 24hr
cm
rain mn
cm
humidity
%
barometer
mb
20260504041916 0 230 0.0 0.0 0.00 0.00 0.00 96 1015.5
20260504041412 0 230 0.0 0.0 0.00 0.00 0.00 96 1015.7
20260504040908 0 230 0.0 0.0 0.00 0.00 0.00 96 1015.6
20260504040406 0 230 0.0 0.0 0.00 0.00 0.00 96 1015.7
20260504035902 0 230 0.0 0.0 0.00 0.00 0.00 95 1015.5
20260504035400 0 230 0.0 0.0 0.00 0.00 0.00 95 1015.8
20260504034856 0 230 0.0 0.0 0.00 0.00 0.00 95 1015.7
20260504034354 0 230 0.0 0.0 0.00 0.00 0.00 95 1015.6
20260504033850 0 230 0.0 0.0 0.00 0.00 0.00 95 1015.7
20260504033348 0 230 0.0 0.0 0.00 0.00 0.00 94 1015.7
20260504032845 0 230 0.0 0.0 0.00 0.00 0.00 94 1015.7
20260504032342 0 230 0.0 0.0 0.00 0.00 0.00 94 1015.6
20260504031839 0 230 0.0 0.0 0.00 0.00 0.00 94 1015.5
20260504031336 0 230 0.0 0.0 0.00 0.00 0.00 94 1015.7
20260504030832 0 230 0.0 0.0 0.00 0.00 0.00 94 1015.7
20260504030330 0 230 0.0 0.0 0.00 0.00 0.00 93 1015.7
20260504025826 0 230 0.0 0.0 0.00 0.00 0.00 93 1015.6
20260504025323 1 230 0.0 0.0 0.00 0.00 0.00 93 1015.8
20260504024820 1 230 0.0 0.0 0.00 0.00 0.00 93 1015.7
20260504024316 1 230 0.0 0.0 0.00 0.00 0.00 92 1015.8
20260504023813 1 230 0.0 0.0 0.00 0.00 0.00 92 1015.9
20260504023309 1 230 0.0 0.0 0.00 0.00 0.00 91 1015.9
20260504022805 1 230 0.0 0.0 0.00 0.00 0.00 91 1015.8
20260504022304 1 230 0.0 0.0 0.00 0.00 0.00 90 1015.8
20260504021758 1 230 0.0 0.0 0.00 0.00 0.00 90 1015.7
20260504021256 1 230 0.0 0.0 0.00 0.00 0.00 89 1015.7
20260504020753 2 230 0.0 0.0 0.00 0.00 0.00 89 1015.9
20260504020249 2 230 0.0 0.0 0.00 0.00 0.00 89 1015.7
20260504015745 2 230 0.0 0.0 0.00 0.00 0.00 88 1015.8
20260504015242 2 229 0.0 0.0 0.00 0.00 0.00 88 1015.7
20260504014738 2 230 0.0 0.0 0.00 0.00 0.00 88 1015.8
20260504014235 2 230 0.0 0.0 0.00 0.00 0.00 86 1015.6
20260504013732 2 230 0.0 0.0 0.00 0.00 0.00 86 1015.8
20260504013230 3 230 0.0 0.0 0.00 0.00 0.00 85 1015.7
20260504012726 3 229 0.0 0.0 0.00 0.00 0.00 84 1015.7
20260504012224 3 230 0.0 0.0 0.00 0.00 0.00 84 1015.6
20260504011721 3 229 0.0 0.0 0.00 0.00 0.00 84 1015.6
20260504011218 3 230 0.0 0.0 0.00 0.00 0.00 83 1015.4
20260504010714 3 229 0.0 0.0 0.00 0.00 0.00 81 1015.6
20260504010210 4 229 0.0 0.0 0.00 0.00 0.00 79 1015.6
20260504005706 4 229 0.0 0.0 0.00 0.00 0.00 78 1015.3
20260504005203 5 229 0.0 0.0 0.00 0.00 0.00 77 1015.5
20260504004702 5 229 0.0 0.0 0.00 0.00 0.00 74 1015.5
20260504004158 5 229 0.0 0.0 0.00 0.00 0.00 72 1015.5
20260504003654 6 229 0.0 0.0 0.00 0.00 0.00 67 1015.3
20260504003151 7 229 0.0 0.0 0.00 0.00 0.00 65 1015.2
20260504002648 8 229 0.0 0.0 0.00 0.00 0.00 61 1015.4
20260504002145 9 229 0.0 1.6 0.00 0.00 0.00 53 1015.3
20260504001643 10 220 1.6 3.2 0.00 0.00 0.00 49 1015.3
20260504001139 10 234 0.0 0.0 0.00 0.00 0.00 48 1015.2
20260504000636 10 230 3.2 4.8 0.00 0.00 0.00 46 1015.3
20260504000134 10 203 3.2 4.8 0.00 0.00 0.00 48 1015.3
20260503235631 10 212 0.0 6.4 0.00 0.00 0.00 46 1015.3
20260503235128 10 241 1.6 11.3 0.00 0.00 0.00 48 1015.1
20260503234626 11 213 0.0 1.6 0.00 0.00 0.00 46 1015.3
20260503234124 11 188 1.6 9.7 0.00 0.00 0.00 45 1015.3
20260503233621 11 228 1.6 11.3 0.00 0.00 0.00 43 1015.3
20260503233116 11 327 4.8 12.9 0.00 0.00 0.00 44 1015.3
20260503232613 12 183 9.7 11.3 0.00 0.00 0.00 42 1015.1
20260503232110 12 243 0.0 4.8 0.00 0.00 0.00 44 1015.2
20260503231608 12 253 3.2 4.8 0.00 0.00 0.00 42 1015.1
20260503231104 12 242 3.2 9.7 0.00 0.00 0.00 42 1015.2
20260503230601 12 249 3.2 9.7 0.00 0.00 0.00 41 1015.2
20260503230059 12 196 6.4 12.9 0.00 0.00 0.00 41 1015.2
20260503225555 12 237 8.0 11.3 0.00 0.00 0.00 41 1015.1
20260503225050 12 200 6.4 11.3 0.00 0.00 0.00 41 1015.4
20260503224548 12 219 3.2 9.7 0.00 0.00 0.00 41 1015.2
20260503224046 12 267 6.4 11.3 0.00 0.00 0.00 40 1015.2
20260503223544 12 223 3.2 11.3 0.00 0.00 0.00 42 1015.3
20260503223039 12 264 4.8 14.5 0.00 0.00 0.00 41 1015.3
20260503222537 11 244 6.4 11.3 0.00 0.00 0.00 42 1015.2
20260503222030 12 227 0.0 6.4 0.00 0.00 0.00 41 1015.2
20260503221528 13 228 3.2 4.8 0.00 0.00 0.00 39 1015.3
20260503221025 12 202 6.4 9.7 0.00 0.00 0.00 40 1015.3
20260503220521 12 224 3.2 11.3 0.00 0.00 0.00 41 1015.4
20260503220018 13 208 6.4 17.7 0.00 0.00 0.00 39 1015.2
20260503215515 13 273 6.4 22.5 0.00 0.00 0.00 38 1015.3
20260503215012 13 236 4.8 12.9 0.00 0.00 0.00 38 1015.4
20260503214510 12 265 4.8 6.4 0.00 0.00 0.00 39 1015.2
20260503214006 12 233 4.8 11.3 0.00 0.00 0.00 42 1015.2
20260503213505 13 217 4.8 14.5 0.00 0.00 0.00 39 1015.3
20260503213001 12 247 3.2 11.3 0.00 0.00 0.00 41 1015.5
20260503212458 12 221 3.2 14.5 0.00 0.00 0.00 42 1015.3
20260503211955 13 224 4.8 14.5 0.00 0.00 0.00 40 1015.6
20260503211453 13 240 3.2 12.9 0.00 0.00 0.00 42 1015.5
20260503210948 12 186 6.4 11.3 0.00 0.00 0.00 39 1015.4
20260503210445 12 258 4.8 11.3 0.00 0.00 0.00 41 1015.3
20260503205939 12 343 4.8 11.3 0.00 0.00 0.00 42 1015.6
20260503205437 11 224 8.0 11.3 0.00 0.00 0.00 43 1015.6
20260503204933 12 218 6.4 16.1 0.00 0.00 0.00 41 1015.5
20260503204430 11 252 8.0 14.5 0.00 0.00 0.00 42 1015.5
20260503203927 12 213 1.6 12.9 0.00 0.00 0.00 42 1015.4
20260503203425 13 151 8.0 14.5 0.00 0.00 0.00 41 1015.4
20260503202921 12 224 6.4 16.1 0.00 0.00 0.00 41 1015.5
20260503202420 12 262 3.2 4.8 0.00 0.00 0.00 43 1015.3
20260503201918 12 196 3.2 12.9 0.00 0.00 0.00 41 1015.5
20260503201414 11 238 4.8 11.3 0.00 0.00 0.00 43 1015.6
20260503200912 12 233 4.8 20.9 0.00 0.00 0.00 43 1015.4
20260503200408 11 245 4.8 11.3 0.00 0.00 0.00 41 1015.9
20260503195905 12 212 4.8 17.7 0.00 0.00 0.00 44 1015.9
20260503195402 12 217 8.0 12.9 0.00 0.00 0.00 42 1015.9
20260503194859 11 255 4.8 16.1 0.00 0.00 0.00 41 1016.0
20260503194355 11 204 4.8 11.3 0.00 0.00 0.00 45 1016.1
20260503193851 12 210 4.8 12.9 0.00 0.00 0.00 43 1016.1
20260503193347 12 179 6.4 16.1 0.00 0.00 0.00 44 1016.1
20260503192843 13 41 9.7 14.5 0.00 0.00 0.00 40 1016.1
20260503192338 12 200 1.6 12.9 0.00 0.00 0.00 42 1016.1
20260503191835 12 210 0.0 6.4 0.00 0.00 0.00 41 1016.1
20260503191332 12 269 4.8 11.3 0.00 0.00 0.00 42 1016.0
20260503190829 12 174 6.4 14.5 0.00 0.00 0.00 43 1016.4
20260503190326 12 185 8.0 14.5 0.00 0.00 0.00 42 1016.2
20260503185823 11 210 6.4 16.1 0.00 0.00 0.00 41 1016.5
20260503185320 12 250 3.2 9.7 0.00 0.00 0.00 42 1016.6
20260503184819 12 196 8.0 16.1 0.00 0.00 0.00 40 1016.5
20260503184316 12 144 6.4 9.7 0.00 0.00 0.00 42 1016.6
20260503183811 12 252 8.0 14.5 0.00 0.00 0.00 40 1016.7
20260503183309 11 278 3.2 9.7 0.00 0.00 0.00 45 1016.6
20260503182806 12 284 3.2 14.5 0.00 0.00 0.00 41 1016.8
20260503182306 12 261 3.2 11.3 0.00 0.00 0.00 41 1016.7
20260503181802 11 210 3.2 12.9 0.00 0.00 0.00 41 1016.7
20260503181259 12 220 9.7 17.7 0.00 0.00 0.00 39 1016.8
20260503180755 12 287 9.7 12.9 0.00 0.00 0.00 46 1016.7
20260503180253 12 263 4.8 11.3 0.00 0.00 0.00 42 1016.9
20260503175749 12 310 4.8 9.7 0.00 0.00 0.00 43 1016.9
20260503175248 10 1 8.0 11.3 0.00 0.00 0.00 45 1016.8
20260503174743 12 204 4.8 11.3 0.00 0.00 0.00 42 1016.9
20260503174242 11 288 6.4 17.7 0.00 0.00 0.00 45 1017.1
20260503173742 10 215 8.0 12.9 0.00 0.00 0.00 46 1017.1
20260503173238 10 277 4.8 17.7 0.00 0.00 0.00 46 1017.2
20260503172735 11 200 3.2 14.5 0.00 0.00 0.00 46 1017.0
20260503172232 10 203 4.8 20.9 0.00 0.00 0.00 44 1017.3
20260503171728 10 184 4.8 25.7 0.00 0.00 0.00 46 1017.3
20260503171226 11 176 8.0 12.9 0.00 0.00 0.00 45 1017.5
20260503170723 11 225 8.0 9.7 0.00 0.00 0.00 42 1017.3
20260503170220 10 253 4.8 11.3 0.00 0.00 0.00 48 1017.2
20260503160141 9 289 1.6 4.8 0.00 0.00 0.00 50 1017.8
20260503150611 8 252 3.2 6.4 0.00 0.00 0.00 52 1017.9
20260503150108 8 233 6.4 11.3 0.00 0.00 0.00 49 1018.2
20260503131001 5 260 3.2 16.1 0.00 0.00 0.00 65 1018.0
20260503130459 5 234 3.2 11.3 0.00 0.00 0.00 70 1017.9
20260503110350 -2 242 0.0 0.0 0.00 0.00 0.00 98 1017.6
20260503090235 -2 242 0.0 0.0 0.00 0.00 0.00 97 1016.6
20260503081203 -1 242 0.0 0.0 0.00 0.00 0.00 97 1016.5
20260503080658 -1 242 0.0 0.0 0.00 0.00 0.00 97 1016.2
20260503080155 -1 242 0.0 0.0 0.00 0.00 0.00 97 1016.2
20260503072632 -1 242 0.0 0.0 0.00 0.00 0.00 96 1016.1
20260503072129 -1 242 0.0 0.0 0.00 0.00 0.00 96 1016.1
20260503071626 -2 242 0.0 0.0 0.00 0.00 0.00 96 1015.8
20260503071122 -2 242 0.0 0.0 0.00 0.00 0.00 95 1015.8
20260503070620 -2 242 0.0 0.0 0.00 0.00 0.00 95 1016.0
20260503070118 -2 242 0.0 0.0 0.00 0.00 0.00 95 1015.8
20260503055038 0 242 0.0 0.0 0.00 0.00 0.00 89 1016.0
20260503054534 0 242 0.0 0.0 0.00 0.00 0.00 88 1016.1
20260503054031 0 242 0.0 0.0 0.00 0.00 0.00 88 1016.1
20260503053529 0 242 0.0 0.0 0.00 0.00 0.00 88 1015.9
20260503053027 0 242 0.0 0.0 0.00 0.00 0.00 87 1016.0
20260503052523 0 242 0.0 0.0 0.00 0.00 0.00 87 1016.1
20260503052020 0 242 0.0 0.0 0.00 0.00 0.00 87 1016.0
20260503051515 0 242 0.0 0.0 0.00 0.00 0.00 88 1016.0
20260503051013 0 242 0.0 0.0 0.00 0.00 0.00 88 1015.9
20260503050509 0 242 0.0 0.0 0.00 0.00 0.00 87 1016.2
20260503050006 1 242 0.0 0.0 0.00 0.00 0.00 86 1016.4
20260503045503 1 241 0.0 0.0 0.00 0.00 0.00 85 1016.5
20260503045001 1 242 0.0 0.0 0.00 0.00 0.00 83 1016.2
20260503044457 1 241 0.0 1.6 0.00 0.00 0.00 83 1016.4
20260503043955 1 236 0.0 1.6 0.00 0.00 0.00 82 1016.6
20260503043450 2 235 1.6 1.6 0.00 0.00 0.00 82 1016.5
20260503042947 2 254 1.6 1.6 0.00 0.00 0.00 82 1016.5
20260503042444 2 254 0.0 4.8 0.00 0.00 0.00 81 1016.4